Weather History for CWDC - December, 2013

Change the Weather History Date:

Sunday, December 22, 2013

  Actual Average Record
Temperature  
Mean Temperature -30 °F -  
Max Temperature -12 °F - - ()
Min Temperature -42 °F - - ()
Degree Days  
Heating Degree Days 96    
Moisture  
Dew Point -39 °F    
Average Humidity 65    
Maximum Humidity 79    
Minimum Humidity 42    
Precipitation  
Precipitation 0.48 in - - ()
Sea Level Pressure  
Sea Level Pressure 30.38 in    
Wind  
Wind Speed 3 mph ()    
Max Wind Speed 6 mph    
Max Gust Speed -    
T = Trace of Precipitation, MM = Missing Value Source: Averaged Metar Reports

Daily Weather History Graph

Daily Weather History Graph

Search for Another Location

Airport or City:

Trip Planner

Search our weather history database for the weather conditions in past years. The results will help you decide how hot, cold, wet, or windy it might be!

Date:

Astronomy

Dec. 22, 2013 Rise Set
Actual Time 10:12 AM CST 4:13 PM CST
Civil Twilight 9:16 AM CST 5:09 PM CST
Nautical Twilight 8:20 AM CST 6:05 PM CST
Astronomical Twilight 7:29 AM CST 6:56 PM CST
Moon 10:48 PM CST (12/22) 11:56 AM CST (12/22)
Length of Visible Light 7h 53m
Length of Day
6h 00m
Waning Gibbous, 76% of the Moon is Illuminated
Dec 22
Waning Gibbous
Dec 25
Last Quarter
Jan 1
New
Jan 7
First Quarter
Jan 15
Full

Hourly Weather History & Observations

Time (CST) Temp. Windchill Dew Point Humidity Pressure Visibility Wind Dir Wind Speed Gust Speed Precip Events Conditions
12:00 AM -33 °F - -40 °F 50% 30.35 in - ENE 2.3 mph - -  
12:00 AM -33.0 °F - -40.2 °F 68% 30.35 in - ENE 2.3 mph - N/A   Unknown
1:00 AM -37.1 °F - -44.7 °F 66% 30.36 in - ENE 2.3 mph - N/A   Unknown
2:00 AM -38.6 °F - -46.3 °F 65% 30.38 in - East 1.2 mph - N/A   Unknown
3:00 AM -39 °F - -47 °F 43% 30.39 in - NE 3.5 mph - -  
3:00 AM -39.5 °F -52.9 °F -47.4 °F 64% 30.39 in - NE 3.5 mph - N/A   Unknown
4:00 AM -40.4 °F -57.0 °F -46.3 °F 72% 30.42 in - ENE 4.6 mph - N/A   Unknown
5:00 AM -41.1 °F -57.8 °F -49.0 °F 64% 30.43 in - ENE 4.6 mph - N/A   Unknown
6:00 AM -42 °F - -50 °F 42% 30.45 in - ENE 3.5 mph - -  
6:00 AM -42.2 °F -56.0 °F -50.4 °F 63% 30.45 in - ENE 3.5 mph - N/A   Unknown
7:00 AM -39.1 °F -52.5 °F -48.5 °F 59% 30.46 in - ENE 3.5 mph - N/A   Unknown
8:00 AM -41.8 °F -55.6 °F -49.7 °F 64% 30.46 in - ENE 3.5 mph - N/A   Unknown
9:00 AM -42 °F - -50 °F 46% 30.47 in - ENE 4.6 mph - -  
9:00 AM -41.6 °F -58.5 °F -49.5 °F 64% 30.47 in - ENE 4.6 mph - N/A   Unknown
10:00 AM -41.3 °F -58.1 °F -49.0 °F 65% 30.46 in - ENE 4.6 mph - N/A   Unknown
11:00 AM -38.2 °F -51.5 °F -45.9 °F 65% 30.45 in - ENE 3.5 mph - N/A   Unknown
12:00 PM -30 °F - -37 °F 51% 30.43 in - ENE 5.8 mph - -  
12:00 PM -30.5 °F -47.7 °F -37.1 °F 70% 30.43 in - ENE 5.8 mph - N/A   Unknown
1:00 PM -23.3 °F - -29.2 °F 74% 30.42 in - WSW 1.2 mph - N/A   Unknown
2:00 PM -20.4 °F - -26.1 °F 75% 30.42 in - East 1.2 mph - N/A   Unknown
3:00 PM -21 °F - -27 °F 58% 30.41 in - Calm Calm - -  
3:00 PM -21.3 °F - -27.2 °F 74% 30.41 in - Calm Calm - N/A   Unknown
4:00 PM -25.6 °F - -31.9 °F 72% 30.41 in - East 1.2 mph - N/A   Unknown
5:00 PM -29.2 °F -44.0 °F -35.7 °F 71% 30.38 in - ENE 4.6 mph - N/A   Unknown
6:00 PM -32 °F - -38 °F 55% 30.36 in - ENE 5.8 mph - -  
6:00 PM -31.7 °F -49.2 °F -38.4 °F 70% 30.36 in - ENE 5.8 mph - N/A   Unknown
7:00 PM -30.8 °F -45.9 °F -35.5 °F 78% 30.30 in - East 4.6 mph - N/A   Unknown
8:00 PM -24.3 °F - -30.5 °F 73% 30.26 in - ESE 1.2 mph - N/A   Unknown
9:00 PM -24 °F - -30 °F 61% 30.22 in - East 1.2 mph - -  
9:00 PM -23.6 °F - -29.6 °F 74% 30.22 in - East 1.2 mph - N/A   Unknown
10:00 PM -19.1 °F - -24.7 °F 76% 30.18 in - East 1.2 mph - N/A   Unknown
11:00 PM -12.1 °F -25.9 °F -17.0 °F 79% 30.12 in - SSE 5.8 mph - N/A   Unknown